Location: Fort Worth, Tx
(32.7431°N, 97.3695°W)
Time: 03:22:26
(UTC-04:00)

Vanguard 3 - Pass Details

Date: 26 February 2024
Orbit: 510 x 3234 km, 33.3° (Epoch: 24 April)

Event Time Altitude Azimuth Distance (km) Brightness Sun altitude
Rises 21:06:29 0° 238° (WSW) 6,372 12.6 -22.3°
Reaches altitude 10° 21:10:17 10° 237° (WSW) 5,611 12.1 -23.1°
Maximum altitude 21:28:49 73° 156° (SSE) 3,339 10.0 -27.0°
Enters shadow 21:38:30 39° 84° (E) 4,081 10.1 -29.0°
